MAS841 WMKK-WIBB

Flight info

Callsign MAS841
Flight time 0h 39m
Altitude 28000
Route SALAX1D SALAX
Aircraft B738/M-SDE2E3FGHIRWXY/LB1

Departure

Time 2026-04-15 07:05
Airport Kuala Lumpur International Airport (WMKK)

Arrival

Time 2026-04-15 07:44
Airport Sultan Syarif Kasim II International Airport / Roesmin Nurjadin AFB (WIBB)
Time Latitude Longitude Altitude Speed Heading
2026-04-15 06:28 2.75066 101.71254 69 ft 0 kts 236°
2026-04-15 06:48 2.75068 101.71257 67 ft 4 kts 236°
2026-04-15 06:49 2.75084 101.71280 67 ft 4 kts 236°
2026-04-15 06:49 2.75099 101.71302 69 ft 4 kts 236°
2026-04-15 06:49 2.75115 101.71320 65 ft 4 kts 190°
2026-04-15 06:50 2.75148 101.71306 68 ft 0 kts 146°
2026-04-15 06:54 2.75147 101.71306 64 ft 1 kts 146°
2026-04-15 06:54 2.75142 101.71309 66 ft 1 kts 146°
2026-04-15 06:54 2.75138 101.71312 66 ft 1 kts 146°
2026-04-15 06:55 2.75137 101.71313 69 ft 0 kts 146°
2026-04-15 06:58 2.75127 101.71320 65 ft 6 kts 146°
2026-04-15 06:58 2.75068 101.71360 65 ft 14 kts 146°
2026-04-15 06:59 2.75022 101.71422 67 ft 12 kts 74°
2026-04-15 06:59 2.75065 101.71490 72 ft 12 kts 53°
2026-04-15 06:59 2.75110 101.71556 66 ft 11 kts 56°
2026-04-15 06:59 2.75155 101.71625 70 ft 13 kts 68°
2026-04-15 07:00 2.75136 101.71663 70 ft 6 kts 140°
2026-04-15 07:00 2.75101 101.71687 70 ft 6 kts 146°
2026-04-15 07:00 2.75064 101.71712 67 ft 7 kts 146°
2026-04-15 07:00 2.75014 101.71745 65 ft 10 kts 146°
2026-04-15 07:01 2.74959 101.71782 70 ft 10 kts 146°
2026-04-15 07:01 2.74902 101.71820 71 ft 10 kts 146°
2026-04-15 07:01 2.74838 101.71863 72 ft 13 kts 146°
2026-04-15 07:01 2.74755 101.71918 74 ft 16 kts 146°
2026-04-15 07:02 2.74655 101.71985 70 ft 15 kts 146°
2026-04-15 07:02 2.74615 101.72025 71 ft 7 kts 98°
2026-04-15 07:02 2.74636 101.72067 82 ft 7 kts 56°
2026-04-15 07:02 2.74663 101.72106 88 ft 7 kts 56°
2026-04-15 07:03 2.74702 101.72163 76 ft 13 kts 53°
2026-04-15 07:03 2.74773 101.72232 71 ft 16 kts 10°
2026-04-15 07:03 2.74869 101.72186 74 ft 2 kts 326°
2026-04-15 07:03 2.74873 101.72183 70 ft 1 kts 326°
2026-04-15 07:04 2.74874 101.72182 70 ft 0 kts 326°
2026-04-15 07:04 2.75020 101.72083 77 ft 66 kts 326°
2026-04-15 07:04 2.75623 101.71680 68 ft 139 kts 326°
2026-04-15 07:05 2.76536 101.71057 482 ft 165 kts 325°
2026-04-15 07:05 2.77153 101.70598 1114 ft 162 kts 321°
2026-04-15 07:05 2.78040 101.69952 1972 ft 161 kts 327°
2026-04-15 07:05 2.79065 101.69292 2320 ft 192 kts 327°
2026-04-15 07:06 2.80347 101.68670 2584 ft 219 kts 340°
2026-04-15 07:06 2.81870 101.68171 2816 ft 239 kts 340°
2026-04-15 07:06 2.83469 101.67613 3305 ft 247 kts 340°
2026-04-15 07:06 2.85160 101.67026 3541 ft 267 kts 340°
2026-04-15 07:07 2.86956 101.66397 4173 ft 275 kts 340°
2026-04-15 07:07 2.88756 101.65754 5045 ft 275 kts 340°
2026-04-15 07:07 2.90565 101.65102 5892 ft 278 kts 340°
2026-04-15 07:07 2.92367 101.64364 6691 ft 282 kts 328°
2026-04-15 07:08 2.93777 101.63013 7478 ft 285 kts 302°
2026-04-15 07:08 2.94483 101.61175 8283 ft 288 kts 277°
2026-04-15 07:08 2.94367 101.59173 9067 ft 291 kts 254°
2026-04-15 07:08 2.93622 101.57279 9861 ft 295 kts 246°
2026-04-15 07:09 2.92762 101.55388 10461 ft 308 kts 245°
2026-04-15 07:09 2.91688 101.53443 10627 ft 333 kts 230°
2026-04-15 07:09 2.89833 101.52012 11121 ft 344 kts 204°
2026-04-15 07:09 2.87487 101.51536 11867 ft 347 kts 177°
2026-04-15 07:10 2.85136 101.52002 12724 ft 349 kts 165°
2026-04-15 07:10 2.82786 101.52721 13399 ft 356 kts 162°
2026-04-15 07:10 2.80423 101.53510 14121 ft 360 kts 161°
2026-04-15 07:10 2.78033 101.54314 14892 ft 364 kts 161°
2026-04-15 07:11 2.75610 101.55116 15633 ft 369 kts 162°
2026-04-15 07:11 2.73160 101.55911 16389 ft 372 kts 162°
2026-04-15 07:11 2.70682 101.56704 17105 ft 376 kts 162°
2026-04-15 07:11 2.68171 101.57503 17701 ft 383 kts 162°
2026-04-15 07:12 2.65614 101.58312 18360 ft 387 kts 161°
2026-04-15 07:12 2.63029 101.59106 19038 ft 391 kts 162°
2026-04-15 07:12 2.60416 101.59921 19713 ft 394 kts 161°
2026-04-15 07:12 2.57800 101.60752 20331 ft 397 kts 161°
2026-04-15 07:13 2.55147 101.61595 20904 ft 401 kts 162°
2026-04-15 07:13 2.52475 101.62441 21452 ft 405 kts 162°
2026-04-15 07:13 2.49780 101.63291 21990 ft 408 kts 162°
2026-04-15 07:13 2.47232 101.64093 22470 ft 411 kts 162°
2026-04-15 07:14 2.44830 101.64848 22918 ft 414 kts 162°
2026-04-15 07:14 2.42072 101.65715 23392 ft 417 kts 162°
2026-04-15 07:14 2.39277 101.66543 23837 ft 421 kts 168°
2026-04-15 07:14 2.36348 101.66641 24241 ft 425 kts 188°
2026-04-15 07:15 2.33510 101.65811 24713 ft 428 kts 205°
2026-04-15 07:15 2.31006 101.64211 25152 ft 430 kts 217°
2026-04-15 07:15 2.28632 101.62359 25554 ft 434 kts 218°
2026-04-15 07:15 2.26248 101.60489 25920 ft 437 kts 217°
2026-04-15 07:16 2.23825 101.58637 26300 ft 440 kts 216°
2026-04-15 07:16 2.21273 101.56945 26661 ft 442 kts 204°
2026-04-15 07:16 2.18342 101.56045 27050 ft 442 kts 187°
2026-04-15 07:16 2.15277 101.55800 27565 ft 440 kts 182°
2026-04-15 07:17 2.12222 101.55641 27847 ft 441 kts 182°
2026-04-15 07:17 2.09164 101.55486 27840 ft 439 kts 182°
2026-04-15 07:17 2.06115 101.55316 27848 ft 439 kts 182°
2026-04-15 07:17 2.03065 101.55127 27854 ft 439 kts 183°
2026-04-15 07:18 2.00015 101.54925 27854 ft 440 kts 183°
2026-04-15 07:18 1.97004 101.54722 27860 ft 440 kts 183°
2026-04-15 07:18 1.93952 101.54518 27867 ft 440 kts 183°
2026-04-15 07:18 1.90901 101.54314 27871 ft 440 kts 183°
2026-04-15 07:19 1.87834 101.54111 27874 ft 440 kts 183°
2026-04-15 07:19 1.84782 101.53908 27870 ft 440 kts 183°
2026-04-15 07:19 1.81722 101.53707 27870 ft 440 kts 183°
2026-04-15 07:19 1.78667 101.53505 27870 ft 440 kts 183°
2026-04-15 07:20 1.75615 101.53303 27870 ft 440 kts 183°
2026-04-15 07:20 1.72554 101.53100 27871 ft 440 kts 183°
2026-04-15 07:20 1.69501 101.52898 27869 ft 440 kts 183°
2026-04-15 07:20 1.66449 101.52696 27862 ft 440 kts 183°
2026-04-15 07:21 1.63404 101.52494 27859 ft 439 kts 183°
2026-04-15 07:21 1.60351 101.52292 27862 ft 439 kts 183°
2026-04-15 07:21 1.57305 101.52090 27861 ft 439 kts 183°
2026-04-15 07:21 1.54276 101.51888 27807 ft 432 kts 183°
2026-04-15 07:22 1.51299 101.51677 27427 ft 424 kts 184°
2026-04-15 07:22 1.48374 101.51460 26940 ft 419 kts 184°
2026-04-15 07:22 1.45488 101.51244 26480 ft 414 kts 184°
2026-04-15 07:22 1.42658 101.51033 26005 ft 410 kts 184°
2026-04-15 07:23 1.39799 101.50820 25523 ft 406 kts 184°
2026-04-15 07:23 1.37028 101.50616 25054 ft 402 kts 184°
2026-04-15 07:23 1.34246 101.50410 24573 ft 400 kts 184°
2026-04-15 07:23 1.31479 101.50207 24110 ft 397 kts 184°
2026-04-15 07:24 1.28721 101.50004 23637 ft 396 kts 184°
2026-04-15 07:24 1.25976 101.49802 23167 ft 396 kts 184°
2026-04-15 07:24 1.23231 101.49600 22703 ft 395 kts 184°
2026-04-15 07:24 1.20498 101.49400 22224 ft 392 kts 184°
2026-04-15 07:25 1.17790 101.49201 21754 ft 388 kts 184°
2026-04-15 07:25 1.15080 101.49002 21282 ft 384 kts 184°
2026-04-15 07:25 1.12423 101.48806 20822 ft 381 kts 184°
2026-04-15 07:25 1.09821 101.48616 20365 ft 378 kts 183°
2026-04-15 07:26 1.07207 101.48426 19897 ft 375 kts 183°
2026-04-15 07:26 1.04613 101.48238 19442 ft 372 kts 183°
2026-04-15 07:26 1.02040 101.48051 18991 ft 369 kts 183°
2026-04-15 07:26 0.99513 101.47868 18549 ft 366 kts 183°
2026-04-15 07:27 0.96974 101.47686 18116 ft 364 kts 182°
2026-04-15 07:27 0.94465 101.47885 17649 ft 363 kts 163°
2026-04-15 07:27 0.92079 101.48692 17262 ft 362 kts 159°
2026-04-15 07:27 0.89717 101.49545 16808 ft 359 kts 159°
2026-04-15 07:28 0.87376 101.50391 16381 ft 356 kts 159°
2026-04-15 07:28 0.85057 101.51219 15945 ft 353 kts 160°
2026-04-15 07:28 0.82752 101.52032 15520 ft 349 kts 160°
2026-04-15 07:28 0.80465 101.52832 15099 ft 347 kts 160°
2026-04-15 07:29 0.78200 101.53621 14680 ft 344 kts 161°
2026-04-15 07:29 0.75953 101.54403 14276 ft 340 kts 161°
2026-04-15 07:29 0.73727 101.55176 13854 ft 337 kts 161°
2026-04-15 07:29 0.71524 101.55942 13450 ft 334 kts 161°
2026-04-15 07:30 0.69345 101.56699 13028 ft 331 kts 161°
2026-04-15 07:30 0.67110 101.57204 12638 ft 329 kts 179°
2026-04-15 07:30 0.64825 101.57168 12330 ft 329 kts 182°
2026-04-15 07:30 0.62547 101.57094 12104 ft 325 kts 182°
2026-04-15 07:31 0.60288 101.57025 11773 ft 325 kts 182°
2026-04-15 07:31 0.58034 101.56965 11448 ft 324 kts 182°
2026-04-15 07:31 0.55772 101.56912 11118 ft 325 kts 182°
2026-04-15 07:31 0.53527 101.56866 10772 ft 320 kts 182°
2026-04-15 07:32 0.51319 101.56823 10436 ft 315 kts 182°
2026-04-15 07:32 0.49146 101.56782 10107 ft 311 kts 182°
2026-04-15 07:32 0.47012 101.56742 9929 ft 297 kts 182°
2026-04-15 07:32 0.45017 101.56705 9652 ft 286 kts 182°
2026-04-15 07:33 0.43036 101.56705 9234 ft 280 kts 180°
2026-04-15 07:33 0.41112 101.56760 8909 ft 274 kts 179°
2026-04-15 07:33 0.39214 101.56821 8623 ft 273 kts 179°
2026-04-15 07:33 0.37321 101.56877 8342 ft 271 kts 179°
2026-04-15 07:34 0.35432 101.56930 8036 ft 271 kts 180°
2026-04-15 07:34 0.33554 101.56980 7756 ft 270 kts 180°
2026-04-15 07:34 0.31683 101.57029 7470 ft 268 kts 180°
2026-04-15 07:34 0.29847 101.56824 7180 ft 268 kts 200°
2026-04-15 07:35 0.28106 101.56153 6939 ft 267 kts 202°
2026-04-15 07:35 0.26439 101.55515 6817 ft 245 kts 201°
2026-04-15 07:35 0.24906 101.54942 6670 ft 226 kts 201°
2026-04-15 07:35 0.23475 101.54413 6561 ft 212 kts 201°
2026-04-15 07:36 0.22106 101.53907 6129 ft 216 kts 201°
2026-04-15 07:36 0.20702 101.53375 5795 ft 215 kts 206°
2026-04-15 07:36 0.19615 101.52417 5533 ft 208 kts 242°
2026-04-15 07:36 0.19224 101.51080 5384 ft 198 kts 264°
2026-04-15 07:37 0.19256 101.49728 5198 ft 191 kts 272°
2026-04-15 07:37 0.19332 101.48427 4997 ft 185 kts 272°
2026-04-15 07:37 0.19404 101.47161 4799 ft 179 kts 271°
2026-04-15 07:37 0.19469 101.45922 4634 ft 177 kts 271°
2026-04-15 07:38 0.19642 101.44711 4438 ft 178 kts 292°
2026-04-15 07:38 0.20542 101.43934 4290 ft 176 kts 346°
2026-04-15 07:38 0.21789 101.43895 4096 ft 189 kts 356°
2026-04-15 07:38 0.23124 101.43803 3774 ft 192 kts 356°
2026-04-15 07:39 0.24447 101.43815 3520 ft 188 kts
2026-04-15 07:39 0.25727 101.43859 3363 ft 179 kts
2026-04-15 07:39 0.26974 101.43903 3282 ft 182 kts
2026-04-15 07:39 0.28259 101.43937 3065 ft 185 kts
2026-04-15 07:40 0.29535 101.43975 2892 ft 183 kts 360°
2026-04-15 07:40 0.30803 101.44014 2755 ft 179 kts
2026-04-15 07:40 0.32042 101.44050 2568 ft 179 kts
2026-04-15 07:40 0.33271 101.44085 2364 ft 172 kts 360°
2026-04-15 07:41 0.34446 101.44114 2111 ft 165 kts 360°
2026-04-15 07:41 0.35544 101.44149 1938 ft 156 kts 360°
2026-04-15 07:41 0.36622 101.44175 1723 ft 154 kts 360°
2026-04-15 07:41 0.37685 101.44210 1531 ft 151 kts
2026-04-15 07:42 0.38726 101.44239 1317 ft 149 kts 360°
2026-04-15 07:42 0.39741 101.44269 1134 ft 145 kts
2026-04-15 07:42 0.40763 101.44299 925 ft 146 kts
2026-04-15 07:42 0.41775 101.44327 731 ft 146 kts
2026-04-15 07:43 0.42786 101.44355 555 ft 146 kts
2026-04-15 07:43 0.43803 101.44378 374 ft 147 kts
2026-04-15 07:43 0.44817 101.44418 209 ft 144 kts
2026-04-15 07:43 0.45784 101.44438 132 ft 129 kts
2026-04-15 07:44 0.46504 101.44461 145 ft 59 kts
2026-04-15 07:44 0.46739 101.44470 149 ft 31 kts
2026-04-15 07:44 0.46919 101.44476 149 ft 2 kts
2026-04-15 07:44 0.46948 101.44477 149 ft 6 kts
2026-04-15 07:45 0.46995 101.44479 148 ft 9 kts
2026-04-15 07:45 0.47058 101.44501 147 ft 10 kts 14°
2026-04-15 07:45 0.47079 101.44492 147 ft 1 kts 282°
2026-04-15 07:45 0.47074 101.44487 147 ft 1 kts 229°
2026-04-15 07:46 0.47064 101.44482 148 ft 4 kts 200°
2026-04-15 07:46 0.47022 101.44478 148 ft 7 kts 182°
2026-04-15 07:46 0.46967 101.44476 148 ft 10 kts 182°
2026-04-15 07:46 0.46886 101.44473 149 ft 9 kts 181°
2026-04-15 07:47 0.46882 101.44473 149 ft 0 kts 181°
2026-04-15 07:47 0.46881 101.44473 149 ft 0 kts 181°
2026-04-15 07:47 0.46859 101.44473 150 ft 7 kts 181°
2026-04-15 07:47 0.46769 101.44471 149 ft 18 kts 181°
2026-04-15 07:48 0.46666 101.44471 147 ft 12 kts 163°
2026-04-15 07:48 0.46634 101.44537 147 ft 9 kts 93°
2026-04-15 07:48 0.46610 101.44587 146 ft 9 kts 156°
2026-04-15 07:48 0.46544 101.44592 145 ft 10 kts 179°
2026-04-15 07:49 0.46475 101.44590 145 ft 8 kts 182°
2026-04-15 07:49 0.46442 101.44600 145 ft 5 kts 134°
2026-04-15 07:49 0.46433 101.44633 145 ft 5 kts 93°
2026-04-15 07:49 0.46432 101.44669 146 ft 5 kts 90°
2026-04-15 07:50 0.46432 101.44685 145 ft 1 kts 91°
2026-04-15 07:50 0.46432 101.44689 145 ft 0 kts 91°
2026-04-15 08:16 0.46432 101.44685 145 ft 3 kts 91°
2026-04-15 08:16 0.46432 101.44658 146 ft 4 kts 91°
2026-04-15 08:16 0.46433 101.44631 145 ft 4 kts 96°
2026-04-15 08:17 0.46436 101.44605 145 ft 4 kts 87°
2026-04-15 08:17 0.46434 101.44588 145 ft 3 kts
2026-04-15 08:17 0.46413 101.44587 145 ft 4 kts
2026-04-15 08:17 0.46407 101.44587 145 ft 1 kts
2026-04-15 08:20 0.46417 101.44588 145 ft 4 kts
2026-04-15 08:20 0.46481 101.44590 145 ft 12 kts
2026-04-15 08:20 0.46539 101.44592 145 ft 13 kts
2026-04-15 08:21 0.46561 101.44593 146 ft 0 kts
2026-04-15 08:22 0.46563 101.44593 146 ft 2 kts
2026-04-15 08:23 0.46609 101.44592 146 ft 8 kts 343°
2026-04-15 08:23 0.46635 101.44550 147 ft 8 kts 274°
2026-04-15 08:23 0.46635 101.44537 147 ft 0 kts 269°
2026-04-15 08:24 0.46635 101.44536 147 ft 0 kts 269°
2026-04-15 08:25 0.46635 101.44510 147 ft 7 kts 268°
2026-04-15 08:25 0.46658 101.44469 147 ft 8 kts 342°
2026-04-15 08:25 0.46711 101.44468 148 ft 8 kts
2026-04-15 08:25 0.46781 101.44471 149 ft 13 kts
2026-04-15 08:26 0.46895 101.44474 149 ft 20 kts
2026-04-15 08:26 0.47025 101.44488 148 ft 10 kts 25°
2026-04-15 08:26 0.47076 101.44493 147 ft 0 kts 302°
2026-04-15 08:26 0.47075 101.44486 147 ft 2 kts 254°
2026-04-15 08:27 0.47059 101.44479 148 ft 3 kts 187°
2026-04-15 08:27 0.47054 101.44479 148 ft 0 kts 184°
2026-04-15 08:27 0.46896 101.44474 149 ft 67 kts 181°
2026-04-15 08:27 0.46112 101.44452 137 ft 155 kts 182°
2026-04-15 08:28 0.44893 101.44426 707 ft 184 kts 180°
2026-04-15 08:28 0.43588 101.44414 1797 ft 190 kts 188°
2026-04-15 08:28 0.42381 101.43797 2555 ft 211 kts 230°
2026-04-15 08:28 0.41630 101.42452 2908 ft 236 kts 247°